FW3743 Weather Reports


Display with metric or nautical units.
time (UTC)temp
F
wind
direction
speed
MPH
gust
MPH
rain 1hr
in
rain 24hr
in
rain mn
in
humidity
%
barometer
mb
20260502202432 48 279 1.0 7.0 0.00 0.20 0.00 56 1014.1
20260502201432 48 0.0 0.0 0.00 0.20 0.00 57 1014.1
20260502200452 48 43 0.0 1.0 0.00 0.20 0.00 59 1014.6
20260502195433 48 324 0.0 1.0 0.00 0.20 0.00 60 1014.2
20260502194432 46 0.0 0.0 0.00 0.20 0.00 63 1014.4
20260502193432 46 0.0 0.0 0.00 0.20 0.00 64 1014.5
20260502192433 46 303 0.0 4.0 0.00 0.20 0.00 64 1014.7
20260502191552 46 0.0 0.0 0.00 0.20 0.00 65 1014.6
20260502190432 46 285 0.0 1.0 0.00 0.20 0.00 65 1015.0
20260502185432 45 0.0 0.0 0.00 0.20 0.00 64 1014.7
20260502184452 45 0.0 0.0 0.00 0.20 0.00 66 1014.6
20260502183432 45 0.0 0.0 0.00 0.20 0.00 66 1014.8
20260502182432 45 0.0 0.0 0.00 0.20 0.00 66 1014.7
20260502181433 45 0.0 0.0 0.00 0.20 0.00 67 1014.5
20260502180432 45 354 0.0 5.0 0.00 0.20 0.00 65 1014.5
20260502170432 46 0.0 0.0 0.00 0.20 0.00 65 1014.4
20260502163432 46 0.0 0.0 0.00 0.20 0.00 65 1014.5
20260502162432 47 0.0 0.0 0.00 0.20 0.00 65 1014.7
20260502161432 49 244 0.0 1.0 0.00 0.20 0.00 62 1014.2
20260502160432 47 0.0 0.0 0.00 0.20 0.00 65 1014.2
20260502151432 45 27 0.0 2.0 0.00 0.20 0.00 68 1014.9
20260502150432 45 0.0 0.0 0.00 0.20 0.00 70 1014.8
20260502130440 41 283 0.0 7.0 0.00 0.20 0.00 86 1015.7
20260502123432 41 0.0 0.0 0.00 0.20 0.00 88 1014.6
20260502122440 41 0.0 0.0 0.00 0.20 0.00 87 1015.5
20260502121432 40 22 0.0 5.0 0.00 0.20 0.00 88 1014.6
20260502120440 40 262 2.0 14.0 0.00 0.20 0.00 89 1015.6
20260502115432 40 317 0.0 5.0 0.00 0.20 0.00 92 1014.4
20260502114440 38 285 0.0 5.0 0.00 0.20 0.00 92 1015.4
20260502113432 40 240 0.0 8.0 0.00 0.20 0.00 91 1014.2
20260502112440 39 298 0.0 1.0 0.00 0.20 0.00 93 1015.5
20260502111452 39 271 0.0 4.0 0.00 0.20 0.00 93 1014.2
20260502110440 39 346 0.0 5.0 0.00 0.20 0.00 94 1015.0
20260502105432 38 272 1.0 8.0 0.00 0.20 0.00 97 1013.9
20260502104440 38 0.0 0.0 0.00 0.20 0.00 99 1014.6
20260502103432 38 333 0.0 8.0 0.00 0.20 0.00 99 1013.6
20260502102440 38 0.0 0.0 0.00 0.20 0.00 99 1014.5
20260502101432 39 0.0 0.0 0.00 0.20 0.00 99 1013.3
20260502100440 39 0.0 0.0 0.00 0.20 0.00 99 1014.3
20260502091452 39 0.0 0.0 0.00 0.20 0.00 99 1012.8
20260502090440 39 0.0 0.0 0.00 0.20 0.00 99 1013.9
20260502071432 39 0.0 0.0 0.00 0.20 0.00 99 1012.5
20260502070500 39 0.0 0.0 0.00 0.20 0.00 99 1013.6
20260502065432 39 0.0 0.0 0.00 0.20 0.00 99 1012.4
20260502064440 39 0.0 0.0 0.00 0.20 0.00 99 1013.3
20260502063432 39 0.0 0.0 0.00 0.20 0.00 99 1012.1
20260502062440 39 0.0 0.0 0.00 0.20 0.00 99 1013.0
20260502061432 40 0.0 0.0 0.00 0.20 0.00 99 1012.3
20260502060440 40 0.0 0.0 0.00 0.20 0.00 99 1013.5
20260502055432 40 0.0 0.0 0.00 0.20 0.00 99 1013.9
20260502054440 40 0.0 0.0 0.00 0.20 0.00 99 1013.8
20260502053432 40 0.0 0.0 0.00 0.20 0.00 99 1014.4
20260502052440 40 0.0 0.0 0.00 0.20 0.00 99 1013.7
20260502051432 40 0.0 0.0 0.00 0.20 0.00 99 1014.0
20260502050440 40 0.0 0.0 0.00 0.20 0.00 99 1014.0
20260502045432 40 0.0 0.0 0.00 0.20 0.00 99 1014.1
20260502044440 40 0.0 0.0 0.00 0.20 0.00 99 1013.9
20260502043432 40 0.0 0.0 0.00 0.20 0.00 99 1014.2
20260502042440 40 0.0 0.0 0.00 0.20 0.00 99 1013.8
20260502041432 40 0.0 0.0 0.00 0.20 0.00 99 1014.1
20260502040440 40 0.0 0.0 0.02 0.20 0.00 99 1013.8
20260502035432 40 0.0 0.0 0.02 0.20 0.20 99 1014.3
20260502034439 40 0.0 0.0 0.02 0.19 0.19 99 1013.6
20260502033452 40 0.0 0.0 0.02 0.19 0.19 99 1014.0
20260502032500 40 0.0 0.0 0.02 0.19 0.19 99 1013.6
20260502031432 40 0.0 0.0 0.03 0.19 0.19 99 1014.0
20260502030440 40 0.0 0.0 0.02 0.18 0.18 99 1013.5
20260502025432 40 0.0 0.0 0.03 0.18 0.18 99 1014.0
20260502024500 40 0.0 0.0 0.04 0.17 0.17 99 1013.7
20260502023431 40 0.0 0.0 0.05 0.16 0.16 99 1014.0
20260502022439 40 0.0 0.0 0.05 0.16 0.16 99 1013.6
20260502021452 40 0.0 0.0 0.05 0.15 0.15 99 1014.2
20260502020440 39 0.0 0.0 0.06 0.15 0.15 99 1013.6
20260502015431 40 0.0 0.0 0.06 0.14 0.14 99 1014.0
20260502014440 40 0.0 0.0 0.06 0.12 0.12 99 1013.6
20260502013432 40 0.0 0.0 0.05 0.10 0.10 99 1013.8
20260502012440 40 0.0 0.0 0.06 0.10 0.10 99 1013.4
20260502011431 40 0.0 0.0 0.05 0.09 0.09 98 1013.7
20260502010440 41 0.0 0.0 0.05 0.08 0.08 98 1013.3
20260502005431 41 0.0 0.0 0.05 0.07 0.07 98 1013.7
20260502004500 41 0.0 0.0 0.04 0.05 0.05 97 1013.0
20260502003432 42 0.0 0.0 0.04 0.04 0.04 96 1013.4
20260502002440 42 0.0 0.0 0.03 0.03 0.03 95 1012.8
20260502001451 43 0.0 0.0 0.03 0.03 0.03 93 1013.6
20260502000440 43 0.0 0.0 0.02 0.02 0.02 92 1012.7
20260501235432 44 0.0 0.0 0.02 0.02 0.02 90 1013.0
20260501234440 45 0.0 0.0 0.01 0.01 0.01 86 1012.7
20260501233432 45 0.0 0.0 0.00 0.00 0.00 82 1012.8
20260501232440 46 0.0 0.0 0.00 0.00 0.00 80 1012.4
20260501231431 46 0.0 0.0 0.00 0.00 0.00 77 1012.6
20260501230440 47 0.0 0.0 0.00 0.00 0.00 74 1012.2
20260501225452 47 0.0 0.0 0.00 0.00 0.00 72 1012.8
20260501224459 48 0.0 0.0 0.00 0.00 0.00 68 1012.1
20260501223432 48 0.0 0.0 0.00 0.00 0.00 66 1012.5
20260501222440 48 0.0 0.0 0.00 0.00 0.00 67 1011.9
20260501221431 49 0.0 0.0 0.00 0.00 0.00 66 1012.4
20260501220439 49 0.0 0.0 0.00 0.00 0.00 65 1012.1
20260501215432 49 0.0 0.0 0.00 0.00 0.00 64 1012.5
20260501214440 50 0.0 0.0 0.00 0.00 0.00 62 1012.1
20260501213452 50 0.0 0.0 0.00 0.00 0.00 61 1012.4
20260501212440 50 0.0 0.0 0.00 0.00 0.00 67 1011.8
20260501211432 51 0.0 0.0 0.00 0.00 0.00 64 1012.1
20260501210440 51 294 0.0 5.0 0.00 0.00 0.00 61 1011.6
20260501205432 52 0.0 0.0 0.00 0.00 0.00 58 1011.8
20260501204439 52 0.0 0.0 0.00 0.00 0.00 57 1011.5
20260501203432 53 297 0.0 1.0 0.00 0.00 0.00 55 1011.7